TIME,DELAY(SENSOR),PRES,OXYGEN,RAWTEMP,T(OPTODE),TCPHASE,FLUOR,BETA(BETA700),BETA(BETA412),BETA(BETA440),CDOM,C(CSC),ED(ED412.40),ED(ED444.00),ED(ED489.70),ED(ED554.30),LU(LU411.80),LU(LU443.40),LU(LU489.60),LU(LU554.10),COMP,TILTX,TILTY,CHECK
1376967713,5809,846.5999755859375000,45.4941596984863300,660.9749755859375000,4.5958690643310550,54.1937789916992200,52,100,85,79,79,15308,2147754870,2147426066,2148013165,2147875190,2147639478,2147058020,2148257179,2147195913,1565,4,13,50133
1376971309,5811,923.9500122070312000,47.9596290588378900,668.5438232421875000,4.3462891578674320,53.9361991882324200,53,99,86,79,79,15305,2147754386,2147424859,2148012086,2147872228,2147638381,2147051108,2148262418,2147197769,656,4,13,10448
1376974909,5812,937.3300170898438000,48.4454116821289060,669.5875854492188000,4.3118171691894530,53.8848686218261700,52,99,90,78,78,15308,2147753234,2147425517,2148012196,2147877238,2147638281,2147050093,2148259282,2147194093,103,4,13,47429
1376978509,5811,967.1099853515625000,49.7926788330078100,672.5286254882812000,4.2146320343017580,53.7313690185546900,53,99,83,77,79,15313,2147756013,2147425801,2148010468,2147876315,2147642212,2147052672,2148261942,2147194313,302,4,13,25444
1376982109,5811,971.6400146484375000,49.6613998413085940,672.5189819335938000,4.2149491310119630,53.7503204345703100,52,99,88,79,79,15313,2147753197,2147425536,2148011840,2147875291,2147641764,2147052406,2148263533,2147198656,342,4,13,64963
1376985709,5812,976.7700195312500000,49.3598594665527340,672.1959228515625000,4.2256298065185550,53.7836189270019500,53,97,84,79,78,15313,2147753764,2147424713,2148016640,2147875840,2147642477,2147053449,2148261376,2147195126,622,4,13,391
1376989309,5809,976.9699707031250000,49.2323493957519500,672.3948974609375000,4.2190508842468260,53.8035583496093750,52,102,85,78,78,15308,2147751405,2147425563,2148012626,2147877083,2147641737,2147054829,2148259593,2147199296,786,4,13,34196
1376992909,5806,981.2700195312500000,49.5331001281738300,673.6967163085938000,4.1760058403015140,53.7783699035644500,53,100,87,78,80,15309,2147752731,2147427209,2148012982,2147875958,2147645568,2147051364,2148257846,2147196900,3543,4,13,16723
1376996509,5810,979.9899902343750000,49.5404090881347660,673.4190063476562000,4.1851878166198730,53.7743110656738300,53,97,83,79,80,15310,2147753142,2147421193,2148013778,2147878089,2147641691,2147058340,2148261696,2147200749,3301,4,13,31434
1377000109,5805,983.4400024414062000,49.6723213195800800,673.4041137695312000,4.1856799125671390,53.7607307434082000,52,98,85,79,78,15311,2147754441,2147425563,2148014445,2147875721,2147644178,2147058249,2148260416,2147196992,3403,4,13,39769
1377003709,5811,979.1500244140625000,49.2720108032226560,673.2861938476562000,4.1895809173583980,53.8097190856933600,52,98,85,78,79,15312,2147756205,2147424118,2148014262,2147876461,2147643190,2147055058,2148256996,2147196132,1315,4,13,36059
1377007309,5806,974.3800048828125000,49.8146705627441400,675.0850219726562000,4.1300740242004395,53.7603988647460940,53,99,84,79,79,15306,2147753581,2147423990,2148011611,2147875008,2147638436,2147052397,2148258779,2147196809,3075,4,13,19203
1377010909,5809,976.0399780273438000,49.8943481445312500,674.9807739257812000,4.1335220336914060,53.7506217956543000,53,99,83,79,79,15310,2147753261,2147425188,2148013028,2147875712,2147642057,2147054464,2148264000,2147196662,3543,4,13,62355
1377014509,5808,983.0300292968750000,49.4219284057617200,674.5297241210938000,4.1484470367431640,53.8099899291992200,52,101,82,78,79,15307,2147755282,2147422409,2148013449,2147874102,2147639926,2147055158,2148260589,2147196800,155,4,13,50641
1377018109,5808,978.2299804687500000,49.4516105651855500,674.9752197265625000,4.1337070465087890,53.8078804016113300,53,98,85,78,78,15305,2147753618,2147427520,2148012562,2147876580,2147641819,2147056091,2148257490,2147198528,165,4,13,22641
1377021709,5806,982.9299926757812000,49.5995903015136700,673.9475097656250000,4.1677069664001465,53.7776718139648440,52,98,84,79,80,15309,2147757586,2147427172,2148011940,2147873819,2147641481,2147059328,2148262473,2147197732,143,4,13,63050
1377025309,5810,986.4899902343750000,50.0908699035644500,674.1260986328125000,4.1617999076843260,53.7104682922363300,52,99,87,78,79,15304,2147756909,2147425444,2148012443,2147873042,2147641307,2147057709,2148253010,2147198518,3492,3,13,21323
1377028909,5809,973.6300048828125000,49.8574485778808600,674.8414916992188000,4.1381320953369140,53.7520599365234400,53,99,87,79,78,15308,2147757165,2147425179,2148013065,2147876873,2147643940,2147053312,2148258505,2147195520,98,4,13,62989
1377032509,5812,988.0700073242188000,50.1408309936523440,674.8040771484375000,4.1393680572509770,53.7086791992187500,53,98,82,79,79,15308,2147752420,2147424905,2148011565,2147872420,2147641517,2147050505,2148260416,2147196534,148,4,13,25002
1377036109,5811,985.0200195312500000,49.1673202514648440,674.5316162109375000,4.1483840942382810,53.8412818908691400,53,98,83,79,79,15309,2147753088,2147425270,2148012022,2147872795,2147640356,2147049435,2148259373,2147199616,62,4,13,3034
1377039709,5812,984.0999755859375000,48.9805488586425800,674.8892822265625000,4.1365509033203125,53.8710899353027340,52,101,88,78,78,15303,2147752082,2147426276,2148016612,2147874240,2147639323,2147052781,2148261952,2147201627,436,4,13,18157
1377043309,5809,979.1199951171875000,49.1860694885253900,675.0068969726562000,4.1326580047607420,53.8455581665039060,52,97,86,78,79,15303,2147756388,2147428708,2148014308,2147873216,2147640448,2147052150,2148258221,2147196571,258,4,13,10093
1377046909,5809,983.1699829101562000,49.4913291931152340,675.1668090820312000,4.1273670196533200,53.8024482727050800,53,97,88,79,79,15307,2147757504,2147425600,2148013622,2147876388,2147640420,2147053001,2148260297,2147200777,3486,4,13,42412
1377050509,5807,983.9099731445312000,49.4225807189941400,674.9774780273438000,4.1336312294006350,53.8134613037109400,53,101,82,77,80,15305,2147758089,2147426989,2148011684,2147874102,2147642185,2147050825,2148261851,2147200813,3271,4,13,64328
1377054109,5811,988.4899902343750000,49.0069694519043000,673.6613159179688000,4.1771740913391110,53.8565788269043000,51,98,84,78,79,15304,2147755538,2147423963,2148013668,2147875172,2147639332,2147050166,2148262601,2147196123,26,4,13,30691
1377057709,5807,982.6900024414062000,49.1566696166992200,675.1630249023438000,4.1274948120117190,53.8513107299804700,52,96,85,79,80,15302,2147754377,2147427712,2148011620,2147875830,2147644854,2147051072,2148262838,2147198354,3326,4,13,23711
1377061309,5808,984.0800170898438000,49.4297294616699200,675.1657714843750000,4.1274008750915530,53.8159904479980500,52,100,85,78,80,15305,2147754742,2147428589,2148013632,2147875693,2147641984,2147054491,2148258651,2147197942,3485,4,13,12435
1377064909,5810,988.4699707031250000,49.9582214355468750,675.2360839843750000,4.1250739097595215,53.7437591552734400,53,98,85,78,79,15302,2147757284,2147423954,2148013174,2147878756,2147640667,2147056512,2148259062,2147198683,3332,4,13,41090
1377068509,5812,999.7600097656250000,49.7254219055175800,674.1721191406250000,4.1602802276611330,53.7621116638183600,52,98,85,78,78,15301,2147753325,2147428370,2148014436,2147876288,2147644772,2147052388,2148261110,2147193929,2910,4,13,24089
1377072109,5808,993.5100097656250000,48.8152313232421900,673.5452270507812000,4.1810169219970700,53.8796882629394500,51,97,81,78,80,15302,2147752192,2147426797,2148012361,2147878061,2147640557,2147055030,2148262226,2147197184,3576,3,13,57859
1377075709,5806,996.3300170898438000,49.1862106323242200,673.0872802734375000,4.1961588859558105,53.8189315795898440,52,99,84,79,80,15299,2147755776,2147427602,2148011510,2147874258,2147641618,2147052306,2148261339,2147197019,3422,3,13,12095
1377079309,5809,996.9799804687500000,49.0227584838867200,673.2039184570312000,4.1923031806945800,53.8432312011718750,53,96,85,80,79,15301,2147753444,2147424667,2148013750,2147875913,2147644013,2147056164,2148261174,2147193152,3382,4,13,35044
1377082909,5810,989.5999755859375000,48.9286994934082000,673.7642211914062000,4.1737709045410160,53.8645591735839840,53,98,84,79,79,15297,2147758418,2147426422,2148014217,2147875766,2147642331,2147051264,2148262948,2147197805,3513,4,13,61416
1377086509,5809,990.9099731445312000,49.3460617065429700,675.0838012695312000,4.1301140785217285,53.8264389038085940,52,99,86,79,78,15299,2147757577,2147424576,2148012580,2147874971,2147641517,2147053174,2148264585,2147193938,3479,4,13,21259
1377090109,5811,981.7800292968750000,49.4569091796875000,675.2943725585938000,4.1231460571289060,53.8125000000000000,52,99,88,78,79,15298,2147752832,2147426660,2148011145,2147877494,2147640832,2147055771,2148263332,2147194688,3143,4,13,38613
1377093709,5807,985.5200195312500000,50.5736885070800800,676.2523193359375000,4.0914378166198730,53.6717796325683600,52,102,84,78,80,15297,2147755602,2147427273,2148014089,2147877330,2147640393,2147056722,2148260882,2147195858,3335,4,13,36058
1377097309,5812,986.3699951171875000,49.5489311218261700,675.5140991210938000,4.1158728599548340,53.8004112243652340,52,97,87,78,79,15292,2147757677,2147427254,2148010944,2147875337,2147644379,2147049280,2148264201,2147198628,99,4,13,35958
1377100909,5811,986.9299926757812000,49.5647888183593750,675.4932250976562000,4.1165637969970700,53.8022003173828100,52,98,81,78,78,15293,2147754907,2147426258,2148009344,2147879030,2147640822,2147048832,2148264768,2147195337,49,4,13,29420
1377104509,5810,992.7100219726562000,50.1935386657714840,675.2955932617188000,4.1231040954589840,53.7106895446777340,52,97,85,78,79,15286,2147754048,2147424301,2148013275,2147876169,2147639936,2147055104,2148261037,2147195611,3101,4,13,7902
1377108109,5812,991.8099975585938000,49.8142814636230500,674.7083740234375000,4.1425337791442870,53.7574386596679700,52,97,81,80,78,15296,2147756736,2147426816,2148011574,2147876644,2147642934,2147056018,2148262125,2147197257,3439,4,13,41646
1377111356,5812,993.1099853515625000,49.4480590820312500,674.3145751953125000,4.1555628776550290,53.8004493713378900,52,98,84,79,79,15290,2147751177,2147427264,2148010358,2147876004,2147642176,2147057005,2148259867,2147198418,13,4,13,9691
